Theta_e
353 354 355 353 354 353 351 350 350 351 351 351 350 350 349 349 348 349 355 354 346 338 334 332 328 325 327 330 333 334 334 336 338 341 348 351 351 351 347 345 350 354 352 349 348 352 353 351 352 350 347 347 348 346 344 346 347 346 347 347 348 348 344
354 355 355 355 356 356 354 352 352 351 351 351 352 351 350 350 349 349 352 355 351 344 340 337 331 326 325 325 327 329 331 334 335 337 342 345 347 349 349 346 347 352 354 354 352 352 353 353 353 352 347 345 347 347 345 345 345 345 346 345 345 347 346
352 352 353 354 356 357 355 353 352 351 350 351 351 351 351 351 350 350 352 354 354 350 345 341 335 329 326 326 326 327 328 330 332 334 338 341 343 347 350 347 346 349 352 354 353 350 350 351 352 353 350 345 344 345 346 345 343 343 346 345 344 345 345
351 350 351 354 356 355 353 352 351 352 352 351 351 351 352 351 350 351 352 354 356 355 350 344 338 333 331 332 331 330 330 329 330 330 335 341 344 346 350 350 348 349 351 352 352 351 350 348 346 348 348 345 344 345 345 345 345 343 346 347 344 344 345
349 349 350 353 355 353 352 352 352 353 353 352 352 352 352 353 352 352 352 354 357 358 355 351 347 340 336 337 337 337 335 333 333 330 331 342 348 348 350 351 350 350 350 350 351 352 353 350 344 340 341 342 345 346 344 344 346 344 344 347 346 345 347
347 348 349 350 352 353 353 352 352 352 352 353 354 354 354 354 355 353 352 354 357 358 358 357 356 350 345 342 341 343 342 338 337 335 330 338 349 351 350 351 351 349 349 350 351 351 353 352 348 342 338 338 342 346 345 342 344 345 344 345 346 344 346
345 346 347 347 350 351 352 353 353 353 353 355 355 353 353 354 355 355 354 355 356 356 356 357 357 354 352 350 346 347 348 343 340 340 336 337 346 351 351 350 350 350 349 350 350 351 351 352 351 348 341 338 340 346 350 345 342 344 344 345 346 345 346
342 344 345 347 349 349 351 353 355 355 354 356 356 353 353 354 355 355 355 356 355 355 356 356 355 353 354 355 352 351 352 349 344 342 341 341 345 349 351 350 349 349 349 350 349 350 351 349 350 349 344 343 345 347 352 351 346 344 345 345 345 345 345
342 342 342 345 347 348 349 351 354 355 354 355 355 353 353 354 354 354 354 354 354 355 356 355 355 353 353 355 355 353 354 354 351 346 342 344 348 349 349 350 349 348 348 349 349 349 350 349 349 348 345 346 350 350 350 352 351 348 347 346 344 343 345
340 340 341 343 345 346 347 347 348 351 353 355 355 354 354 354 354 354 353 352 353 354 355 355 354 353 352 354 357 356 355 356 356 353 348 348 349 349 348 348 349 348 347 348 349 348 349 349 350 350 345 343 349 350 348 349 352 350 348 348 347 345 345
338 338 339 341 342 342 343 343 343 345 348 352 353 353 354 355 355 356 355 353 352 351 352 353 353 353 352 354 356 356 355 355 355 355 354 353 351 349 348 347 348 349 348 348 348 348 349 349 349 351 349 343 343 345 342 342 348 349 347 347 347 345 344
337 337 337 338 339 339 340 341 341 341 343 347 349 350 351 353 354 355 354 353 352 351 350 351 351 352 352 353 354 355 355 356 355 353 353 354 353 350 348 347 346 347 349 348 346 346 348 348 348 349 351 348 344 341 336 334 339 342 343 344 345 345 344
337 337 335 336 337 338 338 338 338 339 340 342 345 346 348 350 351 352 352 352 351 351 350 350 351 351 351 352 353 355 356 357 355 353 351 352 352 350 348 347 346 346 348 349 347 345 345 347 348 348 349 350 349 345 339 333 331 334 337 340 345 348 348
336 336 335 335 336 336 337 337 336 337 337 339 342 344 346 348 349 350 351 351 351 350 350 350 350 351 351 351 352 354 356 356 355 354 353 351 351 350 348 347 346 345 346 348 348 347 344 343 346 348 347 348 349 349 347 341 334 332 333 334 340 347 349
334 335 335 335 335 335 336 336 335 335 335 336 339 342 343 344 345 345 347 349 350 349 350 349 349 350 350 350 350 351 353 355 354 354 353 352 353 353 349 347 346 344 344 345 346 348 346 342 342 346 347 347 347 348 349 349 343 335 331 331 332 338 345
333 333 334 334 334 334 335 335 335 334 334 334 336 338 340 341 342 343 345 347 348 348 349 349 350 350 349 349 350 350 351 352 353 353 353 354 355 355 353 351 348 345 343 344 345 346 347 344 342 342 345 347 347 346 347 349 349 342 333 329 329 329 336
332 333 333 333 333 333 333 334 334 334 334 333 334 335 336 338 340 341 343 344 345 346 348 349 351 351 350 352 352 350 349 351 352 353 353 354 354 355 354 352 352 350 347 345 344 344 345 346 345 343 343 345 347 348 348 346 348 346 338 333 330 328 329
332 332 332 332 333 332 332 332 333 334 333 333 333 334 334 335 338 339 340 340 341 343 345 347 349 349 350 352 352 350 349 350 350 352 353 354 355 355 353 351 352 353 352 350 349 347 345 344 345 345 344 344 345 348 350 349 348 347 343 337 333 331 329
330 331 331 332 331 331 331 331 332 332 333 332 332 333 333 333 335 338 339 339 339 340 341 343 345 346 347 349 351 351 350 351 351 352 352 353 353 354 354 352 350 351 352 352 351 350 348 347 347 346 345 345 344 345 347 349 350 349 347 344 339 336 334
328 328 329 330 330 330 329 329 330 331 332 332 331 332 332 332 333 335 337 337 339 339 338 337 339 341 342 344 346 348 349 350 351 352 352 352 352 353 354 353 351 349 348 349 350 349 349 350 350 349 349 348 347 346 345 346 348 349 349 348 346 344 342
327 326 326 327 328 328 327 326 328 329 330 331 330 330 331 331 331 333 335 335 336 338 337 335 334 335 336 338 341 343 345 347 348 349 350 351 353 353 353 353 353 351 349 348 349 349 350 352 352 352 352 352 351 350 349 347 347 349 349 349 349 349 348
325 325 324 325 325 326 326 324 325 326 328 330 330 329 330 331 331 331 332 332 333 336 336 333 329 330 333 335 337 339 340 341 343 345 346 348 350 352 352 352 353 353 351 351 352 353 352 353 353 353 354 355 355 354 352 351 349 349 349 350 350 351 350
323 323 323 324 324 325 325 322 322 325 325 327 328 327 328 330 330 330 329 329 330 334 334 330 324 325 328 330 333 335 337 338 338 339 343 345 347 349 350 350 351 352 352 352 353 354 354 352 352 353 353 354 354 354 354 353 352 350 350 350 351 351 352
322 322 322 322 323 324 323 321 322 324 324 324 325 324 326 329 330 330 328 325 326 332 332 325 320 321 323 324 327 330 335 339 337 334 335 339 343 345 347 348 350 351 351 353 354 354 354 353 353 353 352 352 353 354 354 354 353 352 351 351 351 352 352
322 321 321 322 323 322 322 322 323 324 323 324 324 322 324 328 330 331 330 326 326 330 329 322 318 319 319 320 322 325 331 337 337 334 332 332 335 339 342 346 349 350 350 351 353 354 354 355 355 354 353 352 352 352 353 354 354 353 352 351 351 351 352
321 321 321 321 321 320 321 322 323 323 323 324 324 323 324 327 327 327 328 327 329 331 330 325 321 318 317 318 319 322 328 331 332 334 336 335 331 331 334 338 343 349 349 348 349 351 353 355 356 356 355 354 353 352 352 352 352 353 354 353 353 352 353
321 321 321 321 320 320 321 322 322 322 323 324 324 324 325 324 321 319 319 323 329 332 332 329 324 319 317 318 317 318 323 323 323 329 337 338 334 331 331 332 335 340 345 347 347 349 350 351 353 355 355 355 354 354 353 352 352 352 354 354 354 354 353
321 321 321 321 321 321 322 322 322 322 323 323 324 325 325 322 320 320 319 322 328 331 332 331 327 322 318 318 318 318 318 320 322 325 329 334 336 334 330 330 331 332 336 341 342 344 347 349 349 351 353 355 355 355 355 354 353 352 352 353 354 354 354
321 321 321 321 321 321 321 321 322 322 322 323 323 324 324 323 324 325 325 326 328 330 331 331 329 327 324 321 320 319 320 324 326 323 321 329 337 336 331 330 333 332 333 337 338 339 341 343 343 344 348 351 353 354 355 355 354 354 353 353 353 353 353
320 320 320 320 320 320 320 320 321 320 321 322 322 323 324 325 326 326 326 327 327 328 330 330 330 329 329 327 323 320 323 328 328 326 327 330 331 330 328 330 333 334 334 337 339 339 339 341 342 345 346 347 349 351 354 355 355 355 355 354 354 353 354
319 319 319 319 319 319 319 319 319 319 320 321 321 321 322 323 324 324 325 326 325 325 327 329 329 330 329 328 327 324 324 326 328 330 332 327 322 325 331 335 337 338 337 338 338 339 340 342 344 348 350 350 351 352 353 354 355 356 357 356 355 354 354
318 318 318 318 318 318 318 318 318 319 319 320 320 321 321 321 322 323 324 325 325 325 326 327 328 329 328 328 329 327 324 325 328 330 330 327 326 329 332 333 334 336 339 340 340 340 339 338 338 341 345 348 352 354 354 355 355 356 357 357 356 355 354
317 317 317 317 317 317 317 317 318 318 319 319 319 320 320 321 322 322 323 324 325 326 326 326 327 327 327 327 328 327 326 327 329 330 330 329 329 327 324 323 326 330 335 338 339 339 337 333 331 333 335 338 343 348 351 353 355 357 357 357 356 355 354
316 316 316 316 316 316 316 317 317 317 318 319 319 319 320 320 321 322 322 323 324 324 325 326 326 327 327 326 327 327 326 327 329 329 329 329 329 328 326 324 324 324 325 327 330 332 332 330 330 330 330 331 334 337 340 345 351 355 356 356 356 356 356
315 315 315 315 316 316 316 316 317 317 318 318 318 318 319 319 320 321 322 322 323 324 324 325 325 325 325 325 326 326 326 327 328 328 327 327 327 329 328 323 320 319 318 319 322 324 325 326 328 330 330 329 330 331 332 336 340 345 350 354 356 356 356
314 314 315 315 315 316 316 316 317 317 317 317 318 318 318 319 319 320 321 322 322 323 323 324 324 324 324 324 325 325 326 326 326 326 326 325 325 325 323 319 316 316 317 317 319 320 322 323 324 327 329 329 330 332 333 334 333 335 340 346 351 353 354
314 314 314 315 315 315 316 316 316 316 317 317 316 317 318 319 319 320 320 321 322 322 323 323 323 324 324 324 324 324 325 325 324 325 325 324 324 325 324 320 317 315 316 317 318 318 319 320 321 323 325 327 329 330 330 331 333 334 334 337 341 345 348
313 313 314 314 315 315 316 316 316 316 316 316 316 316 317 319 320 320 320 320 321 322 322 323 323 324 325 324 325 325 324 323 323 324 324 323 324 325 326 324 322 319 316 316 317 317 317 318 319 321 322 325 329 331 329 328 330 333 334 333 334 336 339
Wind_Speed
14 13 13 13 12 13 18 22 22 21 24 26 25 22 21 22 23 23 24 23 23 25 24 24 24 22 22 22 20 19 19 18 19 19 18 17 16 14 14 15 14 13 12 12 12 12 11 10 10 9 10 9 8 8 8 8 9 10 10 10 10 9 9
11 11 11 11 9 9 13 18 19 20 24 24 24 23 21 21 23 23 24 24 24 24 24 23 23 23 22 23 22 21 20 19 19 19 19 19 18 16 15 15 15 14 14 13 13 14 13 13 12 11 10 10 9 9 9 9 9 10 10 9 9 10 10
10 10 11 9 8 10 13 17 18 20 22 23 24 22 19 19 23 23 23 25 24 24 24 23 23 23 22 23 23 22 22 21 20 20 20 19 19 18 17 16 15 14 15 15 15 15 15 15 15 14 12 10 10 10 9 9 9 9 10 9 10 10 9
10 11 12 10 7 10 13 15 17 17 19 22 23 22 19 19 22 23 23 24 24 24 25 25 24 23 23 23 23 23 22 22 22 21 21 20 19 18 17 17 16 15 15 15 14 14 14 15 16 15 13 12 11 11 10 10 9 9 9 9 10 10 9
8 11 12 12 11 9 9 13 16 15 15 18 18 18 19 18 21 24 22 22 24 24 24 24 24 24 24 23 23 22 22 22 22 22 22 20 19 19 19 18 17 17 16 16 15 15 15 15 15 15 15 13 12 12 11 11 10 10 10 10 10 10 9
10 11 11 8 10 11 8 9 14 16 16 16 15 18 19 17 17 20 20 19 22 23 23 24 24 24 24 24 23 23 22 21 22 22 23 22 20 20 21 20 19 18 17 17 17 17 17 17 16 15 15 14 14 13 12 12 12 11 11 11 10 10 10
12 13 9 8 9 9 10 10 8 12 16 14 15 19 20 15 15 17 17 18 19 19 21 23 23 23 24 25 24 23 23 22 22 22 23 23 23 22 22 21 21 19 18 18 18 18 19 19 18 16 16 15 14 14 13 12 12 12 11 11 11 11 11
11 14 15 12 10 7 6 9 11 9 12 12 13 17 16 12 14 16 15 16 16 16 19 22 24 23 22 24 24 24 23 23 23 22 22 23 24 24 23 22 22 21 20 20 20 19 19 19 19 18 17 16 15 14 14 13 12 12 12 12 12 12 11
12 12 15 16 14 11 7 7 12 13 12 11 12 16 15 10 10 12 15 17 18 18 19 20 22 23 21 22 24 24 24 23 23 23 23 23 24 24 24 23 23 24 22 21 21 21 21 20 19 19 19 17 16 16 16 16 15 13 13 13 12 12 12
14 14 14 15 14 13 12 10 11 13 14 15 13 9 11 11 9 9 14 19 20 22 21 20 20 22 21 21 21 21 23 24 23 23 23 23 23 24 25 24 23 24 25 23 22 21 23 22 20 20 20 19 19 19 19 19 17 16 15 15 14 13 13
14 16 16 15 14 13 13 13 13 13 13 14 14 11 9 10 9 7 8 12 16 20 21 20 19 20 22 23 22 21 23 25 24 24 24 24 24 24 25 25 24 24 25 25 24 22 22 23 22 21 21 20 20 21 20 19 20 19 17 16 16 15 14
13 15 16 16 16 15 15 14 14 14 12 11 12 12 12 11 8 6 6 6 9 13 15 16 17 18 21 22 20 20 23 26 26 25 24 24 24 24 24 24 24 24 24 25 25 23 22 23 24 23 22 22 22 21 20 19 20 20 19 17 17 16 16
14 14 15 16 17 17 18 18 17 15 12 10 9 10 11 12 11 9 6 4 7 9 9 11 14 18 20 20 19 20 23 26 28 27 25 24 24 24 23 24 24 24 24 24 24 24 23 22 23 24 23 23 23 23 21 20 19 19 20 19 17 16 17
14 14 14 16 17 18 18 19 20 19 16 12 7 6 7 8 9 10 10 6 1 5 6 7 11 16 18 19 22 24 24 24 25 27 27 25 24 25 26 24 24 24 24 24 24 23 24 22 21 23 23 24 24 24 22 21 20 20 20 20 20 19 18
14 14 14 15 16 17 18 19 19 20 21 18 11 6 4 2 1 1 3 7 5 2 4 4 6 11 14 16 18 22 25 23 20 22 25 25 23 24 26 26 25 25 25 25 25 23 23 23 22 22 22 23 23 23 23 22 22 22 21 21 20 20 20
13 13 14 15 15 16 17 18 19 19 20 20 16 12 10 7 3 3 5 2 2 1 1 1 3 6 10 11 10 12 19 22 20 19 22 25 25 23 24 23 23 25 26 25 25 24 22 23 23 23 22 22 22 23 22 23 23 23 23 22 21 21 21
12 13 14 14 15 15 16 17 18 19 19 20 18 16 14 15 14 9 2 3 2 1 3 2 2 3 4 6 8 7 12 17 19 19 20 21 23 25 26 23 20 22 25 26 26 25 24 22 22 23 22 21 21 22 23 23 23 23 25 24 23 22 22
12 12 13 14 14 15 15 16 17 18 18 17 18 17 16 16 16 15 13 10 7 6 4 2 2 3 3 5 7 8 11 13 14 17 20 19 15 16 23 26 25 24 21 20 21 23 24 24 23 23 23 22 21 21 22 23 22 22 24 26 26 25 24
12 12 12 13 14 14 15 15 15 16 16 16 16 16 15 16 16 16 16 15 14 13 9 5 4 4 4 6 7 7 9 11 12 14 18 19 15 13 15 20 24 25 23 21 19 17 20 22 23 23 23 23 23 21 21 22 22 22 23 24 26 27 26
10 11 11 12 13 13 14 15 15 15 16 15 15 14 14 15 16 15 15 16 15 15 14 11 8 7 6 5 6 8 9 11 11 10 10 11 14 17 17 16 17 21 22 22 22 19 19 19 21 23 23 24 25 25 23 22 21 22 23 23 24 25 26
7 9 9 11 12 12 13 14 15 15 15 15 14 14 14 15 15 14 14 14 14 14 15 13 11 10 9 9 8 7 9 10 12 11 10 9 8 10 12 13 14 17 18 17 17 19 21 20 21 24 26 26 27 29 30 27 23 21 21 21 22 23 23
7 8 9 10 11 12 12 13 13 14 14 14 13 14 14 14 15 14 14 14 14 14 14 14 14 14 13 14 14 10 7 8 10 11 13 13 11 8 7 8 11 14 16 15 15 15 17 20 22 24 25 26 27 29 31 31 30 28 24 20 19 21 23
5 6 8 8 9 11 11 12 12 13 13 12 12 14 14 14 14 14 14 14 15 14 14 14 15 17 17 16 17 15 11 9 10 10 10 12 13 13 12 11 10 10 12 14 16 16 17 20 23 24 24 25 27 27 28 29 29 30 29 27 23 22 24
5 5 7 7 8 10 11 12 12 11 12 12 12 13 14 13 13 14 14 15 15 15 15 15 16 17 17 17 18 17 14 13 13 12 10 10 10 12 14 14 12 9 9 12 14 16 18 20 22 24 25 25 26 27 28 28 27 27 29 30 29 27 27
4 5 5 6 8 9 10 12 11 10 11 12 12 13 14 12 11 12 14 15 16 15 15 17 17 17 17 16 17 17 15 13 13 12 12 11 10 10 11 12 12 11 9 10 11 14 17 18 20 22 24 25 26 27 27 27 27 27 28 29 30 31 30
3 4 5 6 7 8 9 10 10 10 11 12 12 13 12 11 11 11 13 15 14 14 15 17 18 19 18 17 16 16 16 15 13 11 13 14 12 9 10 11 12 14 13 12 12 13 15 17 18 20 22 24 25 27 27 27 27 26 26 26 28 30 31
1 3 4 6 7 8 7 8 9 10 11 11 12 12 12 12 13 14 15 14 12 12 13 16 19 21 20 19 17 15 15 16 14 12 11 13 12 11 10 9 11 13 16 16 16 16 17 20 21 21 22 22 22 24 26 27 27 25 24 24 26 28 30
1 2 5 6 7 6 6 7 8 9 10 11 11 11 12 14 14 15 15 13 12 12 12 14 18 21 22 21 18 16 15 15 15 14 11 10 11 13 12 11 11 11 11 13 14 16 18 22 24 25 26 24 22 22 23 24 26 26 25 25 25 26 28
3 4 5 6 6 7 8 7 8 9 10 11 11 11 12 13 13 13 13 12 11 11 12 13 15 18 20 20 18 17 16 14 14 15 13 10 10 13 15 13 12 11 10 9 11 13 15 18 21 24 27 27 26 24 23 23 23 24 26 26 26 25 26
5 5 5 6 7 8 8 8 9 10 10 10 11 11 11 12 12 12 12 12 11 11 11 12 13 14 15 17 18 17 15 12 13 14 11 10 11 14 14 15 15 13 12 12 12 12 13 14 15 18 22 25 26 25 24 24 23 23 24 24 25 26 25
5 5 6 7 8 9 9 10 10 11 11 11 12 12 11 11 12 13 13 13 13 12 11 11 12 12 14 17 17 16 14 13 12 10 9 11 13 12 12 14 15 15 16 17 15 12 11 12 13 15 17 19 20 21 22 23 23 22 22 23 24 26 26
5 6 7 8 9 10 10 11 11 12 12 13 13 13 13 13 13 13 14 14 14 13 12 11 12 12 14 15 15 15 15 13 10 9 11 12 10 9 11 13 13 13 15 17 17 13 12 12 14 16 17 17 16 16 18 20 21 21 21 23 24 25 27
6 7 8 8 10 10 10 10 11 13 14 14 14 14 14 14 14 14 14 14 14 13 13 12 12 12 12 13 13 15 14 11 10 10 11 10 9 11 13 15 14 13 13 15 17 18 17 16 14 15 17 18 17 16 16 16 17 18 19 21 24 25 26
7 8 8 9 10 10 10 10 11 12 14 15 16 16 16 15 15 15 15 15 14 14 14 13 12 12 12 13 13 14 12 10 10 10 9 9 11 12 13 15 16 16 16 16 19 22 23 21 19 16 15 16 17 18 18 16 15 15 16 17 19 21 23
8 9 10 10 10 10 10 10 11 12 13 15 16 17 18 17 16 16 16 16 15 15 15 14 13 12 13 13 12 12 11 10 10 10 11 11 12 12 13 16 18 20 20 18 17 20 22 24 22 18 16 15 15 16 18 17 15 16 17 17 17 17 20
8 9 10 10 10 10 10 10 11 12 13 14 15 16 17 18 18 17 16 16 15 15 15 15 14 14 13 13 12 11 10 10 11 12 12 13 13 14 17 19 20 21 21 20 18 18 20 23 23 20 18 16 13 11 14 15 14 15 18 21 23 23 23
8 9 10 10 10 10 10 11 12 12 13 15 15 14 15 15 16 17 17 16 16 16 15 14 15 15 14 14 13 11 10 10 12 13 14 14 13 15 18 21 22 21 21 21 21 21 21 22 23 22 21 19 15 10 10 12 11 12 14 18 23 27 27
8 9 9 9 9 10 11 11 12 13 13 15 16 15 14 13 14 14 16 16 16 16 15 15 15 15 14 13 11 12 13 13 14 15 15 15 13 13 16 19 22 22 21 21 22 23 23 23 23 23 22 21 18 14 12 10 10 10 11 14 18 22 25
Wind_Direction
160 162 179 183 183 195 193 188 190 193 191 189 190 198 199 196 198 196 196 202 203 203 202 203 208 209 208 209 209 210 207 205 205 199 195 198 199 204 205 199 197 193 192 195 190 188 190 187 191 197 187 181 185 184 185 186 186 191 194 196 198 201 203
150 154 169 170 156 167 185 192 198 195 192 192 193 195 199 201 201 197 199 204 206 206 206 205 208 208 209 212 212 212 211 210 211 207 204 203 201 205 208 205 202 195 190 194 196 195 191 185 194 205 194 185 189 188 188 189 188 190 193 196 198 199 202
135 141 148 152 151 161 180 194 194 189 188 192 192 194 205 212 204 200 203 206 207 208 209 209 209 208 207 210 214 215 214 213 214 213 212 210 206 204 208 210 207 203 197 195 200 203 195 188 193 200 201 197 194 191 191 192 191 190 191 196 199 201 204
119 119 112 105 122 163 181 187 181 180 185 187 187 191 205 214 206 203 205 208 210 209 211 213 212 210 208 208 212 216 216 214 214 216 214 214 213 206 206 212 208 206 208 203 202 202 200 201 198 197 204 204 200 198 194 193 196 193 190 197 201 201 207
98 118 106 85 79 116 165 177 175 182 188 184 180 185 199 207 205 204 204 207 210 210 212 214 211 212 212 211 212 215 217 216 214 217 215 212 215 210 206 210 208 205 209 209 204 198 201 213 211 203 204 205 203 206 201 196 199 198 192 196 203 201 206
61 98 119 118 86 83 110 153 174 186 187 186 192 197 200 203 203 203 203 207 212 213 213 212 210 212 214 214 215 216 218 219 215 217 216 209 210 214 210 209 208 207 208 210 209 201 201 213 216 211 208 206 206 210 211 206 201 201 198 198 206 206 205
46 55 77 131 128 99 96 108 142 183 186 191 209 209 202 201 201 200 201 205 209 212 216 216 212 213 217 217 217 216 219 223 220 219 219 212 207 213 215 212 209 207 207 209 210 207 207 210 211 212 213 210 208 209 214 220 211 203 205 203 206 211 209
39 40 48 75 101 102 103 101 96 124 165 184 206 208 201 199 203 201 202 205 207 210 216 218 216 214 217 220 220 218 219 225 225 222 222 218 211 211 215 216 213 209 207 210 211 210 212 215 212 211 215 213 210 206 209 225 229 214 212 211 208 212 215
53 48 48 58 71 76 87 108 101 106 133 155 180 199 198 193 202 207 208 206 205 211 217 218 217 215 216 219 221 220 220 223 226 226 226 222 216 214 215 217 217 213 209 209 212 211 211 218 218 214 215 213 210 209 205 216 232 227 219 219 216 215 216
67 61 58 61 66 70 73 85 100 114 127 130 133 163 185 185 191 207 216 213 208 212 217 215 214 215 216 217 218 219 222 223 223 225 227 223 218 217 216 216 218 219 214 209 212 215 212 215 218 218 219 214 210 214 212 209 221 228 223 222 224 223 219
75 71 70 72 71 66 69 76 84 95 112 124 119 107 121 151 161 167 194 212 212 211 210 208 211 216 217 218 220 221 223 225 224 224 225 222 218 219 219 217 217 221 221 214 211 216 217 216 215 217 223 221 214 218 222 215 215 223 225 224 226 229 227
80 75 71 72 71 66 65 71 75 77 88 111 121 111 106 111 113 121 143 169 195 205 208 210 214 215 213 215 222 226 228 230 227 224 226 225 221 221 221 219 219 219 222 220 215 214 219 221 219 216 220 226 223 221 227 226 221 224 227 227 228 232 234
85 79 71 66 67 63 59 60 62 64 72 89 110 120 115 102 88 82 93 138 176 187 202 220 221 214 210 211 215 223 229 232 229 227 230 231 228 226 224 222 221 220 221 223 221 216 217 221 224 221 219 224 228 226 227 230 230 229 230 229 227 231 236
85 79 74 65 61 59 56 54 52 51 52 56 75 115 126 114 92 74 61 49 198 200 192 207 217 217 218 219 219 220 223 228 233 234 234 234 235 234 230 227 225 223 224 226 225 220 217 218 223 226 224 222 226 227 226 230 234 233 234 234 229 228 233
79 74 72 67 59 55 54 52 50 49 45 44 48 66 108 149 237 267 43 38 22 267 210 200 218 221 221 225 227 225 226 232 241 241 236 239 245 241 232 231 232 228 226 228 227 224 221 219 220 226 229 228 228 228 226 227 235 238 237 238 236 232 231
78 73 67 65 60 54 53 50 49 49 47 43 45 57 71 67 49 241 246 299 19 55 168 195 262 238 224 234 244 232 229 235 242 244 242 243 246 240 230 232 238 236 232 231 230 228 227 224 220 224 230 233 233 234 230 227 231 240 243 243 242 241 236
70 68 64 62 58 53 51 49 46 47 48 45 42 46 52 51 53 61 36 308 304 66 92 102 308 274 235 261 281 256 231 230 234 246 258 255 247 241 236 241 257 256 243 236 233 231 231 230 225 222 227 233 234 235 235 232 230 236 245 249 247 246 243
71 61 59 58 55 51 49 47 43 42 44 46 44 42 41 40 42 46 40 28 22 23 43 66 337 302 260 269 279 261 245 241 239 252 266 270 268 256 244 248 268 277 266 254 247 238 233 234 232 227 226 229 233 234 237 239 237 236 242 250 252 251 249
75 60 56 56 53 49 46 43 41 39 37 40 43 42 41 38 37 37 33 29 26 18 11 15 5 334 294 276 267 256 253 251 251 260 266 266 274 285 272 259 262 267 271 281 280 254 234 234 236 235 233 232 232 234 238 243 247 247 246 249 255 256 254
72 62 56 56 53 49 45 40 36 35 34 35 38 38 38 37 37 37 34 33 30 20 10 9 16 16 3 336 289 265 262 260 260 273 285 270 262 272 279 273 259 251 256 274 280 262 242 236 233 233 236 235 233 234 236 240 249 256 256 256 258 259 259
72 67 60 55 54 52 45 37 32 29 28 29 30 31 32 32 32 34 34 34 34 27 18 13 17 23 25 23 1 304 281 283 281 283 291 286 270 272 274 266 256 250 247 249 251 247 242 240 237 234 232 231 231 231 230 230 236 248 257 261 261 260 261
69 69 62 51 53 51 41 33 30 26 24 23 23 25 26 24 25 29 31 30 30 28 21 16 20 27 29 29 22 3 333 318 310 300 293 285 279 286 289 269 257 257 254 243 233 234 239 240 243 243 239 236 236 236 235 232 230 233 239 247 257 259 258
70 63 56 47 48 46 32 25 27 23 21 20 17 18 20 16 15 18 21 24 24 22 17 14 18 21 21 23 22 20 21 14 355 340 321 302 287 279 281 285 279 267 260 253 245 241 243 241 241 243 244 243 243 242 244 242 239 238 239 239 243 251 255
70 57 51 40 40 36 20 18 23 20 17 14 7 13 18 12 8 11 10 11 16 15 6 3 8 12 12 13 13 17 27 25 10 3 355 336 316 295 282 282 285 276 261 260 261 258 255 250 247 245 243 243 244 243 245 247 245 244 243 241 239 242 248
47 43 42 33 32 26 14 15 18 13 12 5 357 7 13 5 5 12 6 2 8 7 355 351 355 1 4 6 5 9 19 17 8 11 14 3 346 321 299 284 278 274 266 264 269 272 270 266 260 254 247 244 244 244 245 247 247 246 245 242 240 240 242
34 27 30 25 19 12 10 14 11 6 6 360 352 359 2 351 349 355 355 357 2 2 353 346 344 346 351 357 359 2 7 5 2 13 14 3 357 350 329 305 284 275 274 277 277 270 268 270 270 266 259 253 249 246 246 248 249 249 248 245 243 242 242
44 24 20 19 15 11 10 10 4 1 360 355 353 353 345 331 325 328 337 348 354 354 349 340 337 338 341 346 352 356 357 354 356 8 6 349 345 353 351 332 307 286 274 274 277 271 264 266 269 270 268 265 259 254 251 249 248 249 249 248 247 246 247
60 29 20 19 19 20 19 9 360 357 354 351 351 346 334 326 326 329 334 339 343 343 339 335 335 336 335 338 345 351 354 355 353 354 353 343 336 340 344 343 337 322 295 276 275 273 266 264 266 269 270 269 266 263 260 256 251 248 248 248 249 250 249
59 35 22 20 15 13 15 8 354 347 344 343 343 341 338 335 333 334 335 333 334 334 331 330 333 333 332 335 338 344 354 360 353 346 347 346 335 328 331 338 343 340 332 320 307 296 285 276 272 272 271 268 265 264 263 261 256 252 250 249 249 251 251
41 25 17 13 4 359 359 355 347 341 337 336 337 338 340 338 332 330 329 326 323 324 324 325 328 329 328 328 331 339 348 350 348 350 350 339 324 319 324 336 341 339 338 336 325 313 309 304 293 284 278 273 269 265 262 261 261 259 255 250 247 249 251
24 18 9 1 355 353 350 344 340 338 336 336 335 333 330 329 326 326 326 322 319 319 320 321 320 319 321 324 329 335 338 340 346 345 330 323 328 330 328 330 333 333 333 332 327 316 309 304 293 287 286 283 278 272 265 262 263 262 259 255 250 248 249
10 5 360 356 352 349 346 340 337 335 334 334 334 332 328 325 323 323 323 323 323 322 318 314 310 307 311 319 325 328 331 338 340 326 321 330 339 335 322 314 312 317 324 327 325 314 300 293 286 282 284 286 283 276 266 261 261 261 260 259 255 251 250
358 356 353 351 349 347 345 342 336 333 331 331 332 332 329 326 324 321 317 316 318 317 311 304 302 302 305 310 316 323 330 335 331 324 329 335 325 317 319 317 311 309 311 310 307 303 304 306 302 291 286 285 286 285 278 271 266 262 261 263 264 262 259
345 345 343 342 343 343 342 339 333 331 330 329 328 327 326 324 321 318 315 314 315 315 312 307 301 300 302 304 309 319 327 329 325 322 320 320 319 320 321 318 311 306 304 304 303 303 307 311 312 308 300 291 288 291 291 284 273 266 266 270 273 271 266
332 332 335 337 337 336 334 331 331 331 329 328 327 325 323 321 318 317 316 315 314 313 311 310 307 301 298 299 305 316 322 319 318 317 312 312 317 314 306 304 306 307 308 309 307 305 307 308 308 311 310 301 295 297 298 292 282 274 269 265 265 267 267
325 326 329 330 329 330 331 329 329 330 328 327 326 325 323 322 321 321 318 314 313 314 312 310 309 303 297 296 301 307 310 310 314 316 313 311 312 309 304 302 303 304 307 310 309 307 309 311 310 309 306 301 299 304 306 302 294 281 270 263 260 261 262
316 319 321 324 324 326 327 327 329 332 333 331 324 318 318 323 324 321 318 313 310 309 308 306 305 302 295 293 295 296 297 311 322 319 314 312 312 310 309 308 305 304 305 309 311 310 311 312 312 311 307 299 294 296 305 309 305 289 275 267 264 262 261
307 309 313 318 321 322 324 328 329 330 331 333 328 321 322 329 329 320 315 314 310 307 305 302 303 304 297 287 285 283 280 292 310 315 313 315 315 311 310 311 308 306 305 307 308 310 312 312 312 314 311 303 295 290 291 299 307 299 285 273 265 261 261